Back to catalog

FLOCK 4BE 27

AliveScienceSSO
NORAD 60513·PAYLOAD·🇺🇸 United States

Launched Aug 16, 2024 from Vandenberg Space Force Base

Loading…

Next Passes (next 24 hours)

TLE

FreshSource: Space-Track

Epoch: Sep 13, 2026, 18:39 UTC

1 60513U 24149AX  26256.77711443  .00007463  00000-0  21643-3 0  9999
2 60513  97.3774 338.7333 0003672  10.5465 349.5855 15.35819605115732

Track FLOCK 4BE 27 in real time with AllMySat

Download on the App Store